Location: Chambon
(47.1269°N, 1.6423°E)
Time: 00:11:45
(UTC+00:00)

Daily predictions for brighter satellites

Satellite Brightness Start Highest point End
(mag) Time Altitude Azimuth Time Altitude Azimuth Time Altitude Azimuth
Cosmos 1634 Rocket 4.0 00:00:50 10° N 00:07:09 80° E 00:10:17 32° SSE
Cosmos 2278 Rocket 4.2 00:11:06 11° SE 00:13:31 15° E 00:16:29 10° ENE
PSLV R/B 4.4 00:10:07 10° N 00:14:11 43° WNW 00:15:55 28° WSW
SJ 16-02 1.2 00:15:31 48° SSW 00:16:42 86° ESE 00:21:03 10° NNE
CZ-2C R/B 3.4 00:14:32 20° SE 00:17:52 45° ENE 00:22:56 10° N
Cosmos 1300 Rocket 3.7 00:15:03 10° NNW 00:19:24 60° W 00:20:33 44° SSW
Cosmos 1943 Rocket 4.2 00:17:38 11° SE 00:20:03 14° E 00:22:49 10° ENE
PSLV R/B 4.3 00:16:41 10° N 00:20:30 53° WNW 00:21:35 39° WSW
Cosmos 371 Rocket 3.8 00:19:30 35° SSE 00:20:58 46° ESE 00:25:36 10° NNE
USA 307 2.9 00:20:42 28° W 00:22:32 65° NNW 00:26:31 10° NE
NOSS 2-1 (C) 3.3 00:19:58 10° NW 00:23:34 66° SW 00:24:43 45° S
NOSS 2-1 (E) 3.3 00:23:37 10° NW 00:27:15 69° SW 00:28:37 42° SSE
Cosmos 676 Rocket 4.3 00:24:48 30° SW 00:27:19 63° WNW 00:32:33 10° NNE
Aureole 3 4.4 00:25:37 33° SSW 00:28:17 73° W 00:34:51 10° N
Cosmos 1741 Rocket 4.4 00:26:35 34° SSE 00:28:34 53° ESE 00:33:44 10° NNE
TIMED 4.4 00:27:33 45° SSW 00:28:48 82° WNW 00:33:07 10° NNE
Cosmos 1782 Rocket 4.4 00:35:43 10° NNW 00:39:49 38° W 00:40:56 32° SW
Cosmos 1844 Rocket 4.1 00:36:23 12° WSW 00:40:59 33° NW 00:46:06 10° NNE
Cosmos 1378 Rocket 4.0 00:40:25 33° SSE 00:42:00 51° E 00:46:17 10° NNE
USA 234 3.2 00:40:05 10° NE 00:46:39 79° SE 00:51:09 22° SW
Cosmos 1340 Rocket 3.6 00:46:34 10° N 00:50:17 45° ENE 00:52:07 25° SE
USA 59 Rocket 0.7 00:50:30 10° WNW 00:54:01 34° SW 00:54:17 34° SW
Cosmos 1606 3.1 00:53:03 10° NNW 00:55:42 33° W 00:55:42 33° W
ATLAS 3B R/B 3.0 00:54:36 10° NW 01:02:34 85° NE 01:10:11 10° SE
Cosmos 304 Rocket 3.7 01:00:52 34° SSW 01:02:53 77° WNW 01:07:40 10° NNE
Nimbus 7 Rocket 4.5 00:59:05 10° NNE 01:05:01 72° ESE 01:08:22 27° S
Cosmos 841 Rocket 4.5 01:01:31 10° NW 01:06:03 30° W 01:07:31 26° SW
H-2A R/B 2.2 01:06:39 45° SSW 01:07:27 57° WSW 01:11:03 10° NNW
Cosmos 2242 Rocket 4.3 01:09:13 29° SW 01:10:59 44° WNW 01:15:15 10° N
Cosmos 807 4.5 01:10:24 47° SSW 01:11:21 83° W 01:15:24 10° N
Landsat 4 3.5 01:11:50 44° W 01:11:50 44° W 01:14:33 10° NNW
Cosmos 2279 Rocket 4.3 01:05:58 10° NNW 01:11:55 51° W 01:15:05 27° SSW
H-2A R/B 3.6 01:11:35 10° NE 01:14:54 24° E 01:17:10 15° SE
Cosmos 1850 Rocket 4.2 01:12:44 28° SW 01:15:25 61° WNW 01:20:33 10° NNE
USA 305 4.5 01:14:56 10° NW 01:16:41 16° N 01:18:03 10° NE
Cosmos 1869 3.0 01:13:32 10° N 01:17:15 87° W 01:18:36 38° S
Cosmos 1814 Rocket 4.0 01:12:15 10° NNW 01:17:38 83° WSW 01:21:14 21° SSE
SeaSat 1 4.0 01:17:10 18° WSW 01:17:45 18° WSW 01:21:07 10° WNW
ATLAS 2AS CENTAUR R/B 3.2 01:12:29 15° WSW 01:18:24 57° NW 01:25:13 10° NE
IDEFIX/ARIANE 42P 3.1 01:13:52 10° NNE 01:18:58 50° E 01:22:10 22° SSE
SL-24 R/B - RUBIN 2 3.6 01:14:08 10° NW 01:19:05 79° SW 01:22:27 18° SSE
Cosmos 1455 Rocket 4.5 01:17:20 10° N 01:21:21 34° ENE 01:25:17 10° SE
Cosmos 1833 Rocket 2.8 01:17:04 10° NW 01:22:35 56° WSW 01:25:45 25° S
Cosmos 2221 Rocket 3.6 01:21:45 30° S 01:23:52 76° E 01:28:17 10° NNE
Spot 2 4.3 01:22:25 28° S 01:24:52 67° WSW 01:29:27 10° NNW
Cosmos 1812 3.8 01:25:36 10° N 01:28:29 31° ENE 01:30:43 14° SE
MSX 4.1 01:24:51 10° NNE 01:30:32 60° ESE 01:34:26 20° S
NPP 4.0 01:29:04 10° NNE 01:34:25 59° E 01:38:05 20° S
Meteor 1-11 4.4 01:31:27 22° S 01:35:14 73° E 01:41:03 10° NNE
CZ-2C R/B 3.5 01:30:13 10° N 01:35:31 52° WNW 01:38:34 23° SW
Cosmos 1428 Rocket 4.4 01:32:25 23° S 01:36:24 89° W 01:42:33 10° N
Sich 1 Rocket 3.6 01:32:46 10° NNW 01:37:12 68° W 01:39:38 26° S
Cosmos 1674 Rocket 3.9 01:38:17 28° SW 01:40:16 52° WNW 01:44:31 10° N
Cosmos 332 Rocket 3.8 01:37:42 26° SSW 01:40:25 79° ESE 01:45:15 10° NNE
SL-4 R/B 3.1 01:37:01 10° WNW 01:40:51 43° N 01:44:32 10° ENE
Cosmos 968 Rocket 4.5 01:37:59 18° WSW 01:41:19 37° WNW 01:46:11 10° N
Celestis-02/Orion 38 4.5 01:40:43 10° SSE 01:45:46 85° WSW 01:50:54 10° NNW
Resurs 1-4 Rocket 3.0 01:45:01 10° NNE 01:50:02 42° E 01:54:32 12° SSE
Cosmos 2082 Rocket 2.6 01:47:14 10° NNW 01:52:56 67° ENE 01:58:37 10° SE
USA 307 4.5 01:49:35 10° WNW 01:53:07 31° N 01:56:36 10° NE
SJ 16-02 3.7 01:53:27 10° W 01:55:31 13° NW 01:57:35 10° NNW
Cosmos 2278 Rocket 2.2 01:52:55 22° SSW 01:56:43 90° ESE 02:02:26 10° NNE
Timation 2 Rocket 4.2 01:53:46 19° SW 01:58:03 58° WNW 02:03:58 10° NNE
CZ-2C R/B 3.7 01:55:59 20° SW 01:58:18 27° W 02:02:47 10° NW
Cosmos 2098 Rocket 3.7 01:56:54 10° N 02:00:33 40° ENE 02:03:39 10° SSE
Okean 2 Rocket 4.0 01:58:53 10° NNW 02:02:54 33° W 02:05:04 21° SW
Cosmos 1943 Rocket 2.1 01:59:08 21° SSW 02:02:55 90° ESE 02:08:29 10° NNE
CZ-2D R/B 2.8 01:59:07 10° NNE 02:04:25 52° E 02:09:13 12° S
SL-16 R/B 4.2 02:00:02 10° ESE 02:05:32 35° ENE 02:11:04 10° N
ALOS 3.6 02:02:33 10° NNE 02:06:43 34° E 02:10:52 10° SSE
USA 229 DEB 4.1 02:03:00 10° NW 02:10:19 55° WSW 02:18:13 10° SSE
USA 229 4.1 02:03:07 10° NW 02:10:25 56° WSW 02:18:20 10° SSE
Okean 1 Rocket 3.9 02:08:51 10° NNW 02:12:52 34° W 02:15:20 19° SW
Cosmos 1025 Rocket 3.9 02:13:48 19° SW 02:16:18 35° WNW 02:20:14 10° N
Cosmos 1553 Rocket 4.0 02:17:12 10° N 02:23:18 84° E 02:29:25 10° S
USA 234 4.1 02:23:14 10° NE 02:29:27 48° NNW 02:35:40 10° W
Cosmos 1570 Rocket 4.1 02:25:17 10° NNW 02:30:35 64° WSW 02:35:50 10° S
Cosmos 1092 Rocket 4.3 02:26:09 15° SSW 02:31:19 56° WNW 02:37:33 10° N
Cosmos 1975 Rocket 3.1 02:29:18 14° SSW 02:33:03 73° W 02:37:30 10° N
Cosmos 2369 Rocket 4.0 02:29:11 10° SSE 02:33:48 26° ESE 02:38:27 10° NE
Cosmos 292 Rocket 3.8 02:30:12 15° SSW 02:34:08 76° WNW 02:38:58 10° NNE
ADEOS II 2.4 02:29:51 10° NNE 02:35:05 68° ESE 02:40:17 10° S
Cosmos 2208 Rocket 3.9 02:33:18 10° NNW 02:38:28 73° WSW 02:43:37 10° SSE
Meteor 2-20 4.5 02:35:50 10° NNW 02:41:58 72° W 02:48:06 10° S
Cosmos 773 Rocket 4.0 02:37:08 10° NNW 02:42:21 84° WSW 02:47:35 10° SSE
USA 305 -0.5 02:43:54 10° WNW 02:45:37 88° SE 02:46:23 14° ESE
Cosmos 1515 3.5 02:43:55 10° NNW 02:46:27 36° W 02:48:31 14° SSW
SAR-Lupe-3 4.2 02:45:39 10° S 02:48:30 50° WSW 02:51:23 10° NNW
Cosmos 2266 Rocket 4.4 02:43:12 10° S 02:49:16 67° E 02:55:28 10° NNE
H-2A R/B 3.0 02:46:48 10° N 02:50:21 31° WNW 02:53:41 11° SW
USA 281 4.0 02:45:10 10° NE 02:51:31 48° ESE 02:57:49 10° S
ATLAS 3B R/B 3.9 02:46:24 10° WNW 02:52:30 26° WSW 02:58:23 10° SSW
FENGYUN 3A 4.2 02:47:35 10° N 02:52:42 46° WNW 02:57:44 10° SW
IDEFIX/ARIANE 42P 3.9 02:53:52 10° N 02:58:08 26° WNW 03:02:23 10° WSW
Cosmos 1455 Rocket 4.3 02:55:22 10° NW 02:58:51 24° W 03:02:18 10° SW
Cosmos 220 Rocket 4.4 02:55:55 10° NW 02:59:47 39° WSW 03:03:41 10° S
Cosmos 1812 4.3 02:59:52 10° NW 03:01:35 14° W 03:03:17 10° WSW
DMSP B5D2-2 4.1 02:57:06 10° SSE 03:02:22 87° WSW 03:07:41 10° NNW
Envisat 3.0 02:58:32 10° NNE 03:03:38 87° WNW 03:08:42 10° SSW
Atlas Centaur 2 4.4 03:05:20 10° SSW 03:10:40 19° SSE 03:15:55 10° SE
H-2A R/B 3.0 03:06:59 10° NNE 03:12:08 49° E 03:17:07 10° S
Cosmos 2058 3.5 03:09:58 10° S 03:13:52 55° E 03:17:47 10° NNE
ATLAS 5 CENTAUR R/B 0.9 03:14:37 10° SW 03:17:41 67° NW 03:21:02 10° NE
NOSS 3-3 (A) 4.0 03:13:09 10° SSW 03:18:22 68° SE 03:24:31 10° NE
SL-4 R/B 1.8 03:15:14 10° WNW 03:19:08 86° NNE 03:22:49 10° ESE
Cosmos 2228 3.7 03:15:51 10° NNW 03:19:33 32° W 03:23:13 10° SSW
